GW7192 Weather Reports


Display with metric or nautical units.
time (UTC)temp
F
wind
direction
speed
MPH
gust
MPH
rain 1hr
in
rain 24hr
in
rain mn
in
humidity
%
barometer
mb
20260504050015 58 240 4.0 11.0 0.00 0.00 0.00 63 1004.6
20260504045016 57 253 3.0 10.0 0.00 0.00 0.00 63 1004.6
20260504044015 57 248 2.0 8.0 0.00 0.00 0.00 64 1004.6
20260504043015 57 231 2.0 7.0 0.00 0.00 0.00 64 1004.6
20260504042016 57 252 1.0 6.0 0.00 0.00 0.00 64 1004.6
20260504041036 58 244 1.0 5.0 0.00 0.00 0.00 63 1004.6
20260504040016 58 235 2.0 5.0 0.00 0.00 0.00 63 1004.7
20260504035036 58 214 2.0 6.0 0.00 0.00 0.00 62 1004.7
20260504034016 59 219 2.0 7.0 0.00 0.00 0.00 62 1004.7
20260504033017 59 210 2.0 5.0 0.00 0.00 0.00 61 1004.8
20260504032015 59 217 2.0 7.0 0.00 0.00 0.00 61 1004.9
20260504031015 60 206 2.0 5.0 0.00 0.00 0.00 60 1005.0
20260504030015 60 224 3.0 8.0 0.00 0.00 0.00 59 1005.1
20260504025015 60 175 2.0 5.0 0.00 0.00 0.00 59 1005.1
20260504024036 60 183 1.0 4.0 0.00 0.00 0.00 58 1005.1
20260504023036 61 206 1.0 5.0 0.00 0.00 0.00 57 1005.0
20260504022015 61 222 3.0 7.0 0.00 0.00 0.00 57 1004.9
20260504021036 61 226 1.0 4.0 0.00 0.00 0.00 56 1004.8
20260504020016 62 220 1.0 4.0 0.00 0.00 0.00 55 1004.8
20260504015015 62 239 1.0 5.0 0.00 0.00 0.00 55 1004.8
20260504014016 62 239 1.0 4.0 0.00 0.00 0.00 54 1004.6
20260504013016 63 233 2.0 6.0 0.00 0.00 0.00 53 1004.6
20260504012016 63 227 1.0 4.0 0.00 0.00 0.00 52 1004.4
20260504011016 64 221 1.0 4.0 0.00 0.00 0.00 50 1004.3
20260504010015 65 226 2.0 7.0 0.00 0.00 0.00 49 1004.2
20260504005015 66 229 2.0 8.0 0.00 0.00 0.00 47 1004.3
20260504004015 67 243 2.0 6.0 0.00 0.00 0.00 46 1004.4
20260504003015 68 252 2.0 7.0 0.00 0.00 0.00 44 1004.4
20260504002015 68 250 2.0 6.0 0.00 0.00 0.00 44 1004.3
20260504001015 69 283 4.0 13.0 0.00 0.00 0.00 43 1004.4
20260504000037 69 289 4.0 14.0 0.00 0.00 0.00 43 1004.4
20260503235019 69 281 5.0 19.0 0.00 0.00 0.00 42 1004.3
20260503234016 69 271 4.0 10.0 0.00 0.00 0.00 42 1004.3
20260503233015 69 258 7.0 16.0 0.00 0.00 0.00 42 1004.4
20260503232015 70 260 7.0 17.0 0.00 0.00 0.00 42 1004.5
20260503231015 70 268 5.0 14.0 0.00 0.00 0.00 41 1004.5
20260503230035 69 269 4.0 10.0 0.00 0.00 0.00 42 1004.5
20260503225016 69 275 9.0 16.0 0.00 0.00 0.00 42 1004.6
20260503224015 69 228 7.0 17.0 0.00 0.00 0.00 41 1004.6
20260503223015 69 239 4.0 13.0 0.00 0.00 0.00 42 1004.6
20260503222015 69 211 4.0 15.0 0.00 0.00 0.00 42 1004.7
20260503221015 69 199 8.0 15.0 0.00 0.00 0.00 41 1004.8
20260503220015 68 209 7.0 16.0 0.00 0.00 0.00 41 1005.0
20260503215015 68 237 6.0 19.0 0.00 0.00 0.00 42 1005.0
20260503214015 68 221 7.0 18.0 0.00 0.00 0.00 42 1005.2
20260503213016 68 241 8.0 18.0 0.00 0.00 0.00 41 1005.3
20260503212035 67 233 8.0 20.0 0.00 0.00 0.00 41 1005.5
20260503211035 67 262 7.0 16.0 0.00 0.00 0.00 42 1005.6
20260503210015 66 245 10.0 25.0 0.00 0.00 0.00 41 1005.7
20260503205015 66 225 5.0 19.0 0.00 0.00 0.00 43 1005.9
20260503204015 65 207 9.0 23.0 0.00 0.00 0.00 42 1006.2
20260503203016 64 229 8.0 19.0 0.00 0.00 0.00 43 1006.4
20260503202018 64 207 9.0 21.0 0.00 0.00 0.00 43 1006.8
20260503201016 65 204 8.0 20.0 0.00 0.00 0.00 45 1006.9
20260503200038 64 215 9.0 25.0 0.00 0.00 0.00 47 1007.0
20260503195056 63 216 9.0 27.0 0.00 0.00 0.00 49 1007.3
20260503194038 62 204 11.0 23.0 0.00 0.00 0.00 50 1007.5
20260503193018 62 204 7.0 20.0 0.00 0.00 0.00 51 1007.7
20260503192016 61 172 9.0 20.0 0.00 0.00 0.00 52 1007.7
20260503191017 61 172 9.0 21.0 0.00 0.00 0.00 52 1007.8
20260503190018 60 176 9.0 21.0 0.00 0.00 0.00 51 1007.7
20260503185017 61 169 10.0 20.0 0.00 0.00 0.00 50 1008.0
20260503184018 60 187 8.0 26.0 0.00 0.00 0.00 50 1008.2
20260503183017 59 187 8.0 22.0 0.00 0.00 0.00 53 1008.4
20260503182017 58 170 10.0 29.0 0.00 0.00 0.00 54 1008.7
20260503181017 57 190 9.0 23.0 0.00 0.00 0.00 56 1008.8
20260503180017 57 156 10.0 20.0 0.00 0.00 0.00 57 1009.0
20260503175038 57 167 9.0 18.0 0.00 0.00 0.00 58 1009.4
20260503174037 57 185 8.0 30.0 0.00 0.00 0.00 58 1009.7
20260503173017 57 189 9.0 21.0 0.00 0.00 0.00 58 1010.0
20260503172016 57 199 8.0 18.0 0.00 0.00 0.00 59 1010.3
20260503171018 55 196 7.0 17.0 0.00 0.00 0.00 62 1010.6
20260503131017 49 238 5.0 12.0 0.00 0.01 0.00 61 1012.8
20260503081057 45 239 3.0 11.0 0.00 0.01 0.00 58 1013.2
20260503072017 44 226 2.0 6.0 0.00 0.01 0.00 58 1013.5
20260503071017 44 228 2.0 6.0 0.00 0.01 0.00 58 1013.4